Location: Canyon Rim
(40.8777°N, 111.8641°W)
Time: 08:42:12
(UTC+00:00)

X-37B - Pass Details

Date: 26 April 2021
Orbit: 386 x 389 km, 45.0° (Epoch: 08 May)

Event Time Altitude Azimuth Distance (km) Brightness Sun altitude
Exits shadow 11:12:33 17° 292° (WNW) 1,086 2.5 -14.3°
Maximum altitude 11:14:55 88° 23° (NNE) 391 0.5 -13.9°
Drops below altitude 10° 11:18:06 10° 112° (ESE) 1,408 3.9 -13.4°
Sets 11:20:09 0° 112° (ESE) 2,260 5.0 -13.1°
